Tracking 30743 objects as of 22-Jun-2025
HD Live streaming from Space Station
objects crossing your sky now

STARLINK-31280

Track STARLINK-31280 now!
10-day predictions
STARLINK-31280 is classified as:


NORAD ID: 58843
Int'l Code: 2024-017T
Perigee: 481.6 km
Apogee: 483.1 km
Inclination: 53.2 °
Period: 94.1 minutes
Semi major axis: 6853 km
RCS: Unknown
Launch date: January 24, 2024
Source: United States (US)
Launch site: AIR FORCE WESTERN TEST RANGE (AFWTR)
Your satellite tracking list
Your tracking list is empty




NASA's NSSDC Master Catalog

Two Line Element Set (TLE):
1 58843U 24017T   25172.82076385  .00000348  00000-0  23891-4 0  9990
2 58843  53.1597 336.2010 0001073  94.5856 265.5268 15.30194416 80133
Source of the keplerian elements: AFSPC